カタログに戻る

STARLINK-30308

運用中通信VLEO
NORAD 57742·PAYLOAD·🇺🇸 United States

打ち上げ Sep 1, 2023 から Cape Canaveral Space Force Station

Loading…

次のパス (今後24時間)

TLE

最新Source: CelesTrak SupGP

元期: Sep 14, 2026, 22:11 UTC

1 57742C 23131L   26257.92479167 -.00009777  00000+0 -35418-3 0  2574
2 57742  43.0005 183.7791 0001295 253.1275 237.6353 15.27579344    14

AllMySatでSTARLINK-30308をリアルタイム追跡

Download on the App Store